Location: Christ the King Lutheran Church
(37.7368°N, 100.0278°W)
Time: 21:51:06
(UTC+00:00)

Daily predictions for brighter satellites

Satellite Brightness Start Highest point End
(mag) Time Altitude Azimuth Time Altitude Azimuth Time Altitude Azimuth
SL-08 R/B 3.7 12:00:02 10° S 12:04:41 44° W 12:09:20 10° NNW
Cosmos 1437 Rocket 4.1 12:01:24 10° N 12:05:07 43° ENE 12:08:45 10° SSE
Cosmos 1500 Rocket 4.5 12:01:56 10° NNW 12:05:30 26° W 12:09:05 10° SW
Cosmos 1805 Rocket 4.2 12:07:32 10° NNW 12:11:31 33° W 12:15:29 10° SSW
NOSS 3-4 (A) 4.2 12:11:19 10° NNW 12:18:31 83° ENE 12:26:39 10° SSE
NOSS 3-4 (C) 4.2 12:11:25 10° NNW 12:18:37 83° ENE 12:26:47 10° SE
